Weather in Sainte-Adele

Canada     45°57′07″N   74°08′08″W
temp.,
°C
wind,
m/s
gust,
m/s
humid.,
%
clouds,
%
prec.,
mm/h
press.,
hPa
HPBL,
m
25 may, wed
wed2523:00+7wnw018381 0.0 102710
02:00+6nnw117712 0.0 102710
05:00+5nnw11716 0.0 102810
08:00+12nw125397 0.0 1028203
11:00+19w123811 0.0 10271863
14:00+20sw223525 0.0 10262176
17:00+18ssw4447100 0.0 1025940
20:00+13s1177100 0.0 102511
26 may, thu
thu2623:00+11ese1164100 0.0 102510
02:00+12e1163100 0.0 102324
05:00+9ese2697100 2.1 1022169
08:00+10se21199100 9.4 1021492
11:00+11s31099100 7.9 1018869
14:00+10ssw41597100 14.6 1016847
17:00+12sw31696100 1.9 1014808
20:00+15sw41498100 3.3 1012786
27 may, fri
fri2723:00+16sw5149898 2.5 1011871
02:00+16sw61598100 2.6 1009809
05:00+15sw61697100 0.1 1008809
08:00+15sw51598100 0.5 1007953
11:00+16sw61597100 0.4 10061192
14:00+16sw61396100 1.0 10051041
17:00+16w4897100 0.8 1005590
20:00+14wnw2498100 0.8 1007162
28 may, sat
sat2823:00+13wnw3799100 0.0 1007302
02:00+12nw3897100 0.4 1007385
05:00+9nw3796100 0.6 1008304
08:00+10nw479156 0.6 1009466
11:00+17nw48503 0.0 10091537
14:00+20wnw46393 0.0 10091934
17:00+20wnw46384 0.0 10092019
20:00+14wnw22690 0.0 101135
29 may, sun
sun2923:00+11wnw116913 0.0 101310
02:00+10w117322 0.0 101510
05:00+9wnw118496 0.0 101512
08:00+16wnw236568 0.0 1016204
11:00+20wsw334686 0.0 10171265
14:00+22sw3341100 0.0 10161915
17:00+22ssw33465 0.0 10161610
20:00+16ssw11797 0.0 101811